This demonstration page uses our WeatherBlox Daily Observations layout. Learn more.

Left ArrowRight Arrow

Hourly Observations for November 25, 2021

Temp ( °F °C ) Dew Point ( °F °C ) Humidity (%) Winds ( mph kmh ) Pressure ( in mb ) Visibility ( mi km ) Precip ( " mm )
12:53 am 00:53 Cloudy 53 11.7 26 -3.3 35 35 VRB 5 7 30.14 1021 10 16 0.00 0.00
1:53 am 01:53 Cloudy 53 11.7 26 -3.3 35 35 SW 7 11 30.12 1020 10 16 0.00 0.00
2:53 am 02:53 Cloudy with Light Rain 53 11.7 27 -2.8 37 37 VRB 6 9 30.12 1020 10 16 0.00 0.00
3:53 am 03:53 Cloudy 53 11.7 30 -1.1 41 41 VRB 6 9 30.10 1019 10 16 0.00 0.00
4:53 am 04:53 Cloudy 53 11.7 33 0.6 47 47 SSW 7 11 30.09 1019 10 16 0.00 0.00
5:53 am 05:53 Cloudy 52 11.1 36 2.2 55 55 VRB 7 11 30.08 1019 10 16 0.00 0.00
6:53 am 06:53 Cloudy with Light Rain 50 10 39 3.9 66 66 SW 6 9 30.09 1019 10 16 0.00 0.00
7:39 am 07:39 Cloudy with Light Rain 49 9.4 41 5 74 74 WSW 7 11 30.09 1019 10 16 0.00 0.00
7:53 am 07:53 Cloudy with Light Rain 48 8.9 43 6.1 83 83 SSW 6 9 30.08 1019 6 10 0.01 0.25
8:06 am 08:06 Cloudy with Light Rain 47 8.3 43 6.1 86 86 SSW 7 11 30.09 1019 4 6 0.02 0.51
8:53 am 08:53 Cloudy with Light Rain 47 8.3 44 6.7 90 90 VRB 6 9 30.09 1019 6 10 0.05 1.27
9:19 am 09:19 Cloudy with Light Rain 47 8.3 44 6.7 90 90 VRB 6 9 30.09 1019 6 10 0.01 0.25
9:51 am 09:51 Cloudy with Light Rain 46 8 45 7 93 93 VRB 7 11 30.07 1018 7 11 0.04 1.02
9:53 am 09:53 Cloudy with Light Rain 47 8.3 45 7.2 93 93 VRB 6 9 30.06 1018 7 11 0.04 1.02
10:02 am 10:02 Cloudy with Light Rain 47 8.3 45 7.2 93 93 SSW 8 13 30.07 1018 7 11 0.01 0.25
10:53 am 10:53 Cloudy 47 8.3 44 6.7 90 90 SW 9 15 30.07 1018 10 16 0.01 0.25
11:42 am 11:42 Cloudy with Light Rain 46 7.8 44 6.7 93 93 SSW 7 11 30.06 1018 9 14 0.00 0.00
11:53 am 11:53 Cloudy with Light Rain 46 7.8 44 6.7 93 93 VRB 5 7 30.05 1018 10 16 0.00 0.00
12:53 pm 12:53 Cloudy 47 8.3 45 7.2 93 93 SW 6 9 30.03 1017 10 16 0.00 0.00
1:53 pm 13:53 Cloudy 47 8.3 45 7.2 93 93 WSW 5 7 30.01 1016 10 16 0.00 0.00
2:53 pm 14:53 Cloudy with Mist and Fog 48 8.9 46 7.8 93 93 VRB 7 11 30.00 1016 4 6 0.00 0.00
3:19 pm 15:19 Cloudy with Mist and Fog 48 8.9 46 7.8 93 93 VRB 5 7 30.00 1016 3 5 0.00 0.00
3:53 pm 15:53 Cloudy 48 8.9 47 8.3 96 96 WSW 5 7 30.01 1016 8 13 0.00 0.00
4:07 pm 16:07 Cloudy 48 8.9 47 8.3 96 96 W 7 11 30.02 1017 10 16 0.00 0.00
4:14 pm 16:14 Cloudy 48 8.9 46 7.8 93 93 WNW 15 24 30.03 1017 10 16 0.00 0.00
4:23 pm 16:23 Cloudy 48 8.9 43 6.1 83 83 WNW 16 26 30.03 1017 10 16 0.00 0.00
4:53 pm 16:53 Cloudy 47 8.3 40 4.4 77 77 W 12 19 30.04 1017 10 16 0.00 0.00
5:53 pm 17:53 Cloudy 44 6.7 39 3.9 83 83 WNW 10 17 30.06 1018 10 16 0.00 0.00
6:53 pm 18:53 Cloudy 43 6.1 39 3.9 86 86 W 10 17 30.08 1019 10 16 0.00 0.00
7:53 pm 19:53 Cloudy 42 5.6 38 3.3 85 85 WNW 14 22 30.09 1019 10 16 0.00 0.00
8:53 pm 20:53 Cloudy 41 5 37 2.8 86 86 W 12 19 30.09 1019 10 16 0.00 0.00
9:53 pm 21:53 Cloudy 39 3.9 36 2.2 89 89 WNW 14 22 30.10 1019 9 14 0.00 0.00
10:27 pm 22:27 Cloudy 38 3.3 32 0 79 79 WNW 20 31 30.14 1020 9 14 0.00 0.00
10:53 pm 22:53 Cloudy 37 2.8 29 -1.7 73 73 WNW 15 24 30.12 1020 10 16 0.00 0.00
11:39 pm 23:39 Cloudy 37 2.8 28 -2.2 70 70 WNW 10 17 30.14 1021 10 16 0.00 0.00
11:53 pm 23:53 Cloudy 37 2.8 28 -2.2 70 70 WNW 12 19 30.12 1020 10 16 0.00 0.00

Powered by AerisWeather